Showing default

HJS-9D, 68834

Orbit data source: Space-Track

HJS-9D, 68834 is a payload satellite owned by Zhongguo Xingwang (CN) in LEO that was launched on Fri, 24 Apr 2026 UTC via a CHANG ZHENG 2D launch vehicle from the Xichang Space Center, China (XSC). Payload-class satellites include a variety of spacecraft equipped with specific instruments for various scientific and technological missions. These include communications satellites like Starlink; space stations such as the ISS; scientific satellites like the Hubble; Earth observation satellites from companies like Planet Labs, Umbra, and HawkEye 360; GPS; miniature CubeSats for education and research; and military/defense satellites.

Loading next visibility...
Identifier
68834, 2026-091D
Orbit
LEO
Country
Flag of CNCN / PRC
Related business
Manufacturer
Unknown (CN)
Mission
Operational spacecraft
Bus & Motor
Unknown
Mass
~300 kg wet, ~300 kg dry
Launch date (UTC)
2026-04-24 (2 months ago)
Launch vehicle
CHANG ZHENG 2D
Launch site
Xichang Space Center, China (XSC)
Object type
Payload
Rocket body
Debris
Shape & HBR
Unknown shape, 14.5 m
Radar Cross Section
Large (>1 m²)

Expand to show TLE details & history
Last TLE update: 13 hours ago

TLE from 13 hours ago
0 HJS-9D
1 68834U 26091D   26171.42223630  .00007520  00000-0  36570-3 0  9994
2 68834  55.0025   7.5310 0016801  99.0554 261.2367 15.19296904  8698
Epoch: 2026-06-20T10:08Z
TLE epoch observation values (Epoch: 2026-06-20T10:08:01.216Z)
Latitude
-0.00006°
Longitude
-53.1112°
Altitude
510.837 km
Speed
7.609 km/s
True Right ascension
00h 30m 07s
True Declination
0° 00' 00"
Sunlit
Object was in daylight at epoch
Visualization orbit readout
Latitude
Unknown
Longitude
Unknown
Altitude
Unknown
Speed
Unknown
Apparent Right ascension
Unknown
Apparent Declination
Unknown
Sunlit
N/A
Visualization observer readout
Local Sidereal Time
10:19:34
Azimuth
Unknown
Elevation
Unknown
Doppler factor
Unknown
Orbital elements
Apogee altitude
519.496 km
Perigee altitude
496.357 km
Semi-major axis
6,886.063 km
Eccentricity
0.00168
Inclination
55.0025°
RAAN
7.531°
Arg. of periapsis
99.0554°
True anomaly
261.04648°
Mean anomaly
261.2367°
Eccentric anomaly
261.14159°
Mean motion
3.79828 °/min
Orbital period
94.78 mins
BSTAR
0.0003657
Loading maneuver chart data...
Computing Atmospheric mass density...
Loading historical data...
Loading historical data...
Loading historical data...
Loading historical data...
Loading historical data...
Loading historical data...
Loading historical data...
Other satellites on launch #91 in the year 2026 (2026-04-24 UTC)

Documentation

Showing up to 5 results
|